Weather History for St. Paul Lake Elmo, MN

Change the Weather History Date:

Friday, August 16, 2013

  Actual Average (KSTP) Record (KSTP)
Temperature  
Mean Temperature 68 °F -  
Max Temperature 78 °F 78 °F 95 °F (2003)
Min Temperature 57 °F 58 °F 57 °F (1996)
Cooling Degree Days 2    
Growing Degree Days 18 (Base 50)    
Moisture  
Dew Point 56 °F    
Average Humidity 68    
Maximum Humidity 100    
Minimum Humidity 42    
Precipitation  
Precipitation 0.00 in - - ()
Sea Level Pressure  
Sea Level Pressure 30.18 in    
Wind  
Wind Speed 2 mph (SW)    
Max Wind Speed 9 mph    
Max Gust Speed -    
Visibility 10 miles    
Events      
Averages and records for this station are not official NWS values.
T = Trace of Precipitation, MM = Missing Value Source: NWS Daily Summary

Daily Weather History Graph

Daily Weather History Graph

Search for Another Location

Airport:

Trip Planner

Search our weather history database for the weather conditions in past years. The results will help you decide how hot, cold, wet, or windy it might be!

Date:

Astronomy

Aug. 16, 2013 Rise Set
Actual Time 6:14 AM CDT 8:15 PM CDT
Civil Twilight 5:42 AM CDT 8:47 PM CDT
Nautical Twilight 5:03 AM CDT 9:26 PM CDT
Astronomical Twilight 4:20 AM CDT 10:09 PM CDT
Moon 4:40 PM CDT (8/16) 1:12 AM CDT (8/16)
Length of Visible Light 15h 04m
Length of Day
14h 01m
Waxing Gibbous, 75% of the Moon is Illuminated
Aug 16
Waxing Gibbous
Aug 20
Full
Aug 28
Last Quarter
Sep 5
New
Sep 12
First Quarter

Hourly Weather History & Observations

Time (CDT) Temp. Dew Point Humidity Pressure Visibility Wind Dir Wind Speed Gust Speed Precip Events Conditions
12:05 AM 66.2 °F 57.2 °F 73% 30.15 in 10.0 mi Calm Calm - N/A   Overcast
12:45 AM 64.4 °F 59.0 °F 83% 30.15 in 10.0 mi Calm Calm - N/A   Overcast
1:05 AM 64.4 °F 59.0 °F 83% 30.16 in 10.0 mi Calm Calm - N/A   Overcast
1:25 AM 64.4 °F 57.2 °F 77% 30.15 in 10.0 mi Calm Calm - N/A   Mostly Cloudy
1:45 AM 62.6 °F 57.2 °F 82% 30.15 in 10.0 mi Calm Calm - N/A   Overcast
2:05 AM 62.6 °F 57.2 °F 82% 30.15 in 10.0 mi Calm Calm - N/A   Overcast
2:25 AM 64.4 °F 57.2 °F 77% 30.16 in 10.0 mi Calm Calm - N/A   Overcast
2:45 AM 62.6 °F 57.2 °F 82% 30.15 in 10.0 mi Calm Calm - N/A   Overcast
3:05 AM 62.6 °F 57.2 °F 82% 30.15 in 10.0 mi Calm Calm - N/A   Scattered Clouds
3:25 AM 60.8 °F 57.2 °F 88% 30.15 in 10.0 mi Calm Calm - N/A   Scattered Clouds
3:45 AM 59.0 °F 55.4 °F 88% 30.15 in 10.0 mi Calm Calm - N/A   Overcast
4:05 AM 59.0 °F 55.4 °F 88% 30.15 in 10.0 mi Calm Calm - N/A   Overcast
4:25 AM 59.0 °F 55.4 °F 88% 30.15 in 10.0 mi Calm Calm - N/A   Overcast
4:45 AM 59.0 °F 55.4 °F 88% 30.16 in 10.0 mi Calm Calm - N/A   Overcast
5:05 AM 59.0 °F 55.4 °F 88% 30.16 in 10.0 mi Calm Calm - N/A   Overcast
5:25 AM 57.2 °F 57.2 °F 100% 30.16 in 10.0 mi Calm Calm - N/A   Overcast
5:45 AM 59.0 °F 55.4 °F 88% 30.17 in 10.0 mi South 3.5 mph - N/A   Overcast
6:05 AM 59.0 °F 55.4 °F 88% 30.17 in 10.0 mi Calm Calm - N/A   Mostly Cloudy
6:25 AM 57.2 °F 55.4 °F 94% 30.17 in 10.0 mi Calm Calm - N/A   Scattered Clouds
6:45 AM 57.2 °F 55.4 °F 94% 30.18 in 10.0 mi Calm Calm - N/A   Clear
7:05 AM 57.2 °F 55.4 °F 94% 30.19 in 10.0 mi Calm Calm - N/A   Clear
7:25 AM 59.0 °F 57.2 °F 94% 30.19 in 10.0 mi Calm Calm - N/A   Clear
7:45 AM 60.8 °F 57.2 °F 88% 30.20 in 10.0 mi South 3.5 mph - N/A   Clear
8:05 AM 62.6 °F 59.0 °F 88% 30.20 in 10.0 mi South 3.5 mph - N/A   Clear
8:25 AM 64.4 °F 59.0 °F 83% 30.20 in 10.0 mi SSW 3.5 mph - N/A   Clear
8:45 AM 66.2 °F 59.0 °F 78% 30.20 in 10.0 mi Calm Calm - N/A   Clear
9:05 AM 68.0 °F 60.8 °F 78% 30.20 in 10.0 mi Calm Calm - N/A   Clear
9:25 AM 69.8 °F 59.0 °F 68% 30.20 in 10.0 mi Calm Calm - N/A   Clear
9:45 AM 71.6 °F 59.0 °F 64% 30.21 in 10.0 mi West 3.5 mph - N/A   Clear
10:05 AM 71.6 °F 59.0 °F 64% 30.21 in 10.0 mi NNW 3.5 mph - N/A   Clear
10:25 AM 73.4 °F 57.2 °F 57% 30.21 in 10.0 mi SW 4.6 mph - N/A   Clear
10:45 AM 73.4 °F 59.0 °F 61% 30.21 in 10.0 mi Calm Calm - N/A   Clear
11:05 AM 75.2 °F 57.2 °F 53% 30.21 in 10.0 mi SSW 4.6 mph - N/A   Clear
11:25 AM 75.2 °F 57.2 °F 53% 30.21 in 10.0 mi Calm Calm - N/A   Clear
11:45 AM 75.2 °F 55.4 °F 50% 30.21 in 10.0 mi WSW 6.9 mph - N/A   Clear
12:05 PM 77.0 °F 57.2 °F 50% 30.20 in 10.0 mi SSW 5.8 mph - N/A   Clear
12:25 PM 73.4 °F 55.4 °F 53% 30.20 in 10.0 mi WSW 6.9 mph - N/A   Scattered Clouds
12:45 PM 75.2 °F 55.4 °F 50% 30.20 in 10.0 mi West 5.8 mph - N/A   Overcast
1:05 PM 78.8 °F 57.2 °F 47% 30.20 in 10.0 mi SSW 9.2 mph - N/A   Overcast
1:25 PM 77.0 °F 57.2 °F 50% 30.20 in 10.0 mi SW 5.8 mph - N/A   Scattered Clouds
1:45 PM 78.8 °F 57.2 °F 47% 30.19 in 10.0 mi SSW 6.9 mph - N/A   Scattered Clouds
2:05 PM 78.8 °F 55.4 °F 44% 30.19 in 10.0 mi SSW 8.1 mph - N/A   Clear
2:25 PM 78.8 °F 55.4 °F 44% 30.19 in 10.0 mi Calm Calm - N/A   Clear
2:45 PM 77.0 °F 53.6 °F 44% 30.19 in 10.0 mi SSW 8.1 mph - N/A   Scattered Clouds
3:05 PM 78.8 °F 53.6 °F 42% 30.18 in 10.0 mi SSE 3.5 mph - N/A   Clear
3:25 PM 78.8 °F 55.4 °F 44% 30.18 in 10.0 mi SW 6.9 mph - N/A   Scattered Clouds
3:45 PM 78.8 °F 55.4 °F 44% 30.18 in 10.0 mi SSW 8.1 mph - N/A   Mostly Cloudy
4:05 PM 78.8 °F 55.4 °F 44% 30.18 in 10.0 mi SSW 8.1 mph - N/A   Mostly Cloudy
4:25 PM 78.8 °F 55.4 °F 44% 30.18 in 10.0 mi South 5.8 mph - N/A   Scattered Clouds
4:45 PM 78.8 °F 55.4 °F 44% 30.18 in 10.0 mi WSW 6.9 mph - N/A   Mostly Cloudy
5:05 PM 78.8 °F 55.4 °F 44% 30.18 in 10.0 mi SW 5.8 mph - N/A   Scattered Clouds
5:25 PM 78.8 °F 55.4 °F 44% 30.18 in 10.0 mi SSW 8.1 mph - N/A   Clear
5:45 PM 78.8 °F 55.4 °F 44% 30.18 in 10.0 mi WSW 9.2 mph - N/A   Scattered Clouds
6:05 PM 77.0 °F 53.6 °F 44% 30.18 in 10.0 mi WSW 6.9 mph - N/A   Clear
6:25 PM 77.0 °F 53.6 °F 44% 30.18 in 10.0 mi SSW 6.9 mph - N/A   Clear
6:45 PM 77.0 °F 53.6 °F 44% 30.18 in 10.0 mi SSW 8.1 mph - N/A   Clear
7:05 PM 75.2 °F 53.6 °F 47% 30.17 in 10.0 mi SSW 6.9 mph - N/A   Clear
7:25 PM 73.4 °F 55.4 °F 53% 30.18 in 10.0 mi SSW 4.6 mph - N/A   Clear
7:45 PM 71.6 °F 55.4 °F 57% 30.18 in 10.0 mi South 5.8 mph - N/A   Clear
8:05 PM 69.8 °F 55.4 °F 60% 30.18 in 10.0 mi North 5.8 mph - N/A   Clear
8:25 PM 66.2 °F 55.4 °F 68% 30.18 in 10.0 mi South 3.5 mph - N/A   Clear
8:45 PM 66.2 °F 55.4 °F 68% 30.18 in 10.0 mi SSE 3.5 mph - N/A   Clear
9:05 PM 64.4 °F 55.4 °F 73% 30.18 in 10.0 mi Calm Calm - N/A   Clear
9:25 PM 62.6 °F 55.4 °F 77% 30.19 in 10.0 mi Calm Calm - N/A   Clear
9:45 PM 62.6 °F 55.4 °F 77% 30.19 in 10.0 mi Calm Calm - N/A   Clear
10:05 PM 60.8 °F 55.4 °F 82% 30.19 in 5.0 mi Calm Calm - N/A   Clear
10:25 PM 60.8 °F 55.4 °F 82% 30.19 in 10.0 mi Calm Calm - N/A   Clear
10:45 PM 59.0 °F 55.4 °F 88% 30.19 in 10.0 mi Calm Calm - N/A   Clear
11:05 PM 59.0 °F 55.4 °F 88% 30.19 in 10.0 mi Calm Calm - N/A   Clear
11:25 PM 59.0 °F 55.4 °F 88% 30.20 in 10.0 mi Calm Calm - N/A   Clear
11:45 PM 57.2 °F 55.4 °F 94% 30.20 in 10.0 mi Calm Calm - N/A   Clear